Radiation Dose at Monitoring Post of Fukushima Daini Nuclear Power Station
Date,Time,MP-1(microSv/h),MP-2(microSv/h),MP-3(microSv/h),MP-4(microSv/h),MP-5(microSv/h),MP-6(microSv/h),MP-7(microSv/h),Wind Direction,Wind Velocity(m/s),Rain
2024/05/19,00:00,0.145,0.127,0.209,0.193,0.204,0.115,0.075,south-southwest,3.5,No
2024/05/19,00:10,0.144,0.128,0.206,0.195,0.204,0.114,0.076,south-southwest,3.7,No
2024/05/19,00:20,0.146,0.127,0.208,0.193,0.205,0.114,0.075,south-southwest,3.0,No
2024/05/19,00:30,0.144,0.128,0.208,0.195,0.204,0.114,0.075,south-southwest,2.5,No
2024/05/19,00:40,0.146,0.128,0.207,0.195,0.205,0.115,0.075,southwest,2.5,No
2024/05/19,00:50,0.144,0.127,0.207,0.196,0.203,0.114,0.075,southwest,3.0,No
2024/05/19,01:00,0.145,0.127,0.206,0.194,0.207,0.114,0.075,west-southwest,2.3,No
2024/05/19,01:10,0.145,0.127,0.207,0.195,0.204,0.114,0.075,west,1.9,No
2024/05/19,01:20,0.145,0.128,0.208,0.194,0.206,0.115,0.075,north-northwest,2.2,No
2024/05/19,01:30,0.145,0.127,0.207,0.195,0.205,0.116,0.076,north-northwest,1.7,No
2024/05/19,01:40,0.145,0.127,0.207,0.194,0.207,0.114,0.075,northwest,2.3,No
2024/05/19,01:50,0.145,0.128,0.206,0.195,0.205,0.115,0.076,north-northwest,2.0,No
2024/05/19,02:00,0.145,0.128,0.207,0.196,0.205,0.116,0.075,-,CALM,No
2024/05/19,02:10,0.144,0.128,0.207,0.194,0.205,0.115,0.075,west-northwest,1.0,No
2024/05/19,02:20,0.144,0.126,0.208,0.196,0.205,0.115,0.076,south,1.1,No
2024/05/19,02:30,0.146,0.128,0.207,0.194,0.205,0.114,0.076,south,1.3,No
2024/05/19,02:40,0.144,0.127,0.207,0.195,0.207,0.115,0.076,southeast,1.0,No
2024/05/19,02:50,0.145,0.128,0.208,0.194,0.203,0.114,0.075,southwest,1.4,No
2024/05/19,03:00,0.145,0.128,0.207,0.195,0.206,0.115,0.076,west-southwest,1.9,No
2024/05/19,03:10,0.145,0.128,0.208,0.195,0.204,0.114,0.075,west,1.3,No
2024/05/19,03:20,0.144,0.129,0.206,0.194,0.206,0.114,0.076,north-northwest,1.4,No
2024/05/19,03:30,0.145,0.127,0.206,0.194,0.205,0.116,0.076,north,1.5,No
2024/05/19,03:40,0.145,0.128,0.207,0.194,0.205,0.115,0.075,north,2.0,No
2024/05/19,03:50,0.144,0.128,0.207,0.195,0.205,0.114,0.076,north-northeast,1.4,No
2024/05/19,04:00,0.145,0.128,0.208,0.195,0.205,0.114,0.075,north,1.6,No
2024/05/19,04:10,0.145,0.128,0.207,0.196,0.205,0.116,0.076,north,1.7,No
2024/05/19,04:20,0.146,0.128,0.207,0.195,0.205,0.115,0.075,north,1.4,No
2024/05/19,04:30,0.144,0.128,0.208,0.195,0.206,0.115,0.076,north,0.7,No
2024/05/19,04:40,0.146,0.128,0.207,0.196,0.204,0.114,0.076,-,CALM,No
2024/05/19,04:50,0.144,0.128,0.208,0.195,0.206,0.114,0.075,-,CALM,No
2024/05/19,05:00,0.145,0.127,0.206,0.195,0.203,0.115,0.075,-,CALM,No
2024/05/19,05:10,0.145,0.128,0.207,0.194,0.206,0.115,0.075,-,CALM,No
2024/05/19,05:20,0.146,0.128,0.207,0.194,0.204,0.115,0.076,north-northeast,0.8,No
2024/05/19,05:30,0.145,0.127,0.206,0.194,0.205,0.114,0.075,-,CALM,No
2024/05/19,05:40,0.145,0.128,0.207,0.195,0.203,0.114,0.076,-,CALM,No
2024/05/19,05:50,0.144,0.126,0.207,0.195,0.206,0.114,0.075,north-northeast,1.0,No
2024/05/19,06:00,0.145,0.128,0.208,0.194,0.204,0.115,0.076,-,CALM,No
2024/05/19,06:10,0.144,0.127,0.206,0.194,0.203,0.115,0.075,-,CALM,No
2024/05/19,06:20,0.145,0.128,0.207,0.195,0.206,0.115,0.076,-,CALM,No
2024/05/19,06:30,0.145,0.127,0.206,0.193,0.203,0.115,0.076,-,CALM,No
2024/05/19,06:40,0.146,0.128,0.208,0.195,0.206,0.115,0.075,-,CALM,No
2024/05/19,06:50,0.145,0.128,0.206,0.193,0.205,0.115,0.076,northeast,0.9,No
2024/05/19,07:00,0.145,0.128,0.208,0.196,0.205,0.115,0.076,-,CALM,No
2024/05/19,07:10,0.146,0.129,0.206,0.194,0.207,0.116,0.076,north,0.6,No
2024/05/19,07:20,0.144,0.128,0.208,0.193,0.204,0.115,0.076,north-northwest,1.0,No
2024/05/19,07:30,0.145,0.128,0.207,0.195,0.206,0.115,0.075,north,0.8,No
2024/05/19,07:40,0.145,0.128,0.206,0.194,0.206,0.115,0.075,north,0.6,No
2024/05/19,07:50,0.144,0.129,0.205,0.193,0.204,0.115,0.075,-,CALM,No
2024/05/19,08:00,0.145,0.127,0.204,0.192,0.203,0.115,0.076,-,CALM,No
2024/05/19,08:10,0.146,0.129,0.207,0.196,0.206,0.115,0.075,-,CALM,No
2024/05/19,08:20,0.146,0.128,0.209,0.196,0.205,0.116,0.076,south,0.9,No
2024/05/19,08:30,0.145,0.129,0.207,0.193,0.202,0.115,0.076,south-southeast,1.2,No
2024/05/19,08:40,0.145,0.129,0.206,0.192,0.205,0.115,0.076,southeast,1.0,No
2024/05/19,08:50,0.147,0.128,0.205,0.193,0.206,0.115,0.075,east-southeast,0.9,No
2024/05/19,09:00,0.145,0.127,0.207,0.196,0.205,0.115,0.076,southeast,1.3,No
2024/05/19,09:10,0.145,0.129,0.208,0.196,0.203,0.115,0.075,south-southeast,1.6,No
2024/05/19,09:20,0.143,0.128,0.206,0.194,0.202,0.114,0.076,southeast,1.1,No
2024/05/19,09:30,0.147,0.128,0.206,0.193,0.203,0.115,0.075,southeast,1.6,Yes
2024/05/19,09:40,0.145,0.127,0.206,0.194,0.208,0.115,0.075,south-southeast,1.8,No
2024/05/19,09:50,0.145,0.127,0.205,0.192,0.206,0.114,0.076,-,CALM,No
2024/05/19,10:00,0.143,0.129,0.206,0.195,0.204,0.113,0.076,south,1.0,No
2024/05/19,10:10,0.144,0.129,0.209,0.197,0.204,0.115,0.075,south-southeast,2.1,No
2024/05/19,10:20,0.146,0.128,0.208,0.195,0.202,0.115,0.075,southeast,2.7,No
2024/05/19,10:30,0.146,0.127,0.206,0.194,0.204,0.114,0.075,south-southeast,3.2,No
2024/05/19,10:40,0.145,0.127,0.207,0.194,0.207,0.115,0.075,southeast,2.9,No
2024/05/19,10:50,0.144,0.127,0.205,0.192,0.206,0.115,0.075,south-southeast,4.5,No
2024/05/19,11:00,0.143,0.128,0.204,0.193,0.205,0.114,0.075,south,5.1,No
2024/05/19,11:10,0.143,0.128,0.208,0.196,0.202,0.114,0.074,south-southeast,4.3,No
2024/05/19,11:20,0.145,0.126,0.208,0.195,0.204,0.114,0.076,south-southeast,5.7,No
2024/05/19,11:30,0.145,0.127,0.207,0.194,0.206,0.115,0.075,south,5.0,No
2024/05/19,11:40,0.143,0.127,0.206,0.194,0.206,0.114,0.075,south,6.0,No
2024/05/19,11:50,0.145,0.127,0.208,0.197,0.203,0.114,0.074,south,5.7,No
2024/05/19,12:00,0.145,0.128,0.208,0.196,0.206,0.115,0.075,south,4.5,No
2024/05/19,12:10,0.144,0.127,0.206,0.193,0.206,0.114,0.074,south,6.2,No
2024/05/19,12:20,0.142,0.127,0.204,0.193,0.204,0.114,0.075,south-southeast,6.6,No
2024/05/19,12:30,0.143,0.127,0.205,0.195,0.202,0.114,0.075,south-southeast,7.0,No
2024/05/19,12:40,0.145,0.127,0.206,0.194,0.203,0.115,0.076,south,7.4,No
2024/05/19,12:50,0.144,0.126,0.209,0.194,0.202,0.114,0.074,south-southeast,6.6,No
2024/05/19,13:00,0.144,0.128,0.207,0.193,0.205,0.113,0.074,south-southeast,7.1,No
2024/05/19,13:10,0.143,0.126,0.205,0.193,0.206,0.114,0.075,south,8.3,No
2024/05/19,13:20,0.145,0.127,0.205,0.196,0.204,0.114,0.075,south-southeast,8.3,No
2024/05/19,13:30,0.147,0.127,0.207,0.195,0.204,0.114,0.075,south,7.6,No
2024/05/19,13:40,0.145,0.127,0.207,0.193,0.206,0.115,0.075,south,6.4,No
2024/05/19,13:50,0.143,0.127,0.207,0.196,0.205,0.115,0.074,south,7.1,No
2024/05/19,14:00,0.146,0.127,0.206,0.195,0.205,0.113,0.074,south,7.8,No
2024/05/19,14:10,0.145,0.128,0.208,0.194,0.203,0.115,0.074,south,6.5,No
2024/05/19,14:20,0.145,0.126,0.207,0.195,0.205,0.115,0.075,south,5.1,No
2024/05/19,14:30,0.144,0.127,0.206,0.197,0.205,0.114,0.073,south,6.0,Yes
2024/05/19,14:40,0.145,0.127,0.206,0.196,0.203,0.114,0.075,south,6.5,No
2024/05/19,14:50,0.144,0.128,0.208,0.194,0.202,0.114,0.075,south,6.4,No
2024/05/19,15:00,0.143,0.127,0.208,0.194,0.207,0.113,0.075,south-southeast,5.6,No
2024/05/19,15:10,0.143,0.127,0.205,0.195,0.204,0.114,0.074,south-southeast,6.0,No
2024/05/19,15:20,0.147,0.127,0.205,0.194,0.203,0.114,0.075,south-southeast,7.6,No
2024/05/19,15:30,0.145,0.128,0.208,0.193,0.203,0.114,0.074,south-southeast,7.9,No
2024/05/19,15:40,0.144,0.127,0.208,0.195,0.206,0.113,0.075,south,8.1,No
2024/05/19,15:50,0.145,0.128,0.206,0.196,0.205,0.115,0.074,south-southeast,7.8,No
2024/05/19,16:00,0.145,0.127,0.209,0.193,0.203,0.115,0.075,south-southeast,8.1,No
2024/05/19,16:10,0.144,0.126,0.207,0.195,0.207,0.114,0.074,south-southeast,7.5,No
2024/05/19,16:20,0.145,0.129,0.206,0.196,0.205,0.115,0.075,south,7.8,No
2024/05/19,16:30,0.145,0.128,0.208,0.194,0.205,0.115,0.075,south,6.8,No
2024/05/19,16:40,0.145,0.127,0.206,0.196,0.207,0.114,0.074,south-southeast,6.3,No
2024/05/19,16:50,0.146,0.128,0.207,0.197,0.204,0.115,0.075,south-southeast,6.3,No
2024/05/19,17:00,0.146,0.127,0.208,0.194,0.204,0.114,0.074,south-southeast,6.5,No
2024/05/19,17:10,0.144,0.128,0.206,0.196,0.206,0.115,0.075,south,7.1,No
2024/05/19,17:20,0.145,0.127,0.207,0.195,0.204,0.114,0.075,south,5.7,No
2024/05/19,17:30,0.145,0.127,0.207,0.194,0.205,0.114,0.075,south,5.5,No
2024/05/19,17:40,0.145,0.127,0.207,0.197,0.206,0.114,0.074,south-southeast,5.6,No
2024/05/19,17:50,0.147,0.127,0.209,0.194,0.204,0.115,0.075,south,6.0,No
2024/05/19,18:00,0.144,0.129,0.208,0.195,0.206,0.114,0.075,south,7.1,No
2024/05/19,18:10,0.146,0.127,0.209,0.196,0.204,0.114,0.075,south-southeast,7.1,No
2024/05/19,18:20,0.144,0.128,0.208,0.195,0.204,0.114,0.075,south-southeast,7.0,No
2024/05/19,18:30,0.145,0.128,0.207,0.197,0.206,0.114,0.075,south,7.5,Yes
2024/05/19,18:40,0.145,0.127,0.209,0.196,0.204,0.114,0.075,south,6.6,Yes
2024/05/19,18:50,0.144,0.128,0.207,0.196,0.207,0.115,0.076,south,5.4,Yes
2024/05/19,19:00,0.145,0.127,0.208,0.197,0.204,0.115,0.074,south,4.9,Yes
2024/05/19,19:10,0.145,0.128,0.208,0.195,0.206,0.114,0.075,south,5.9,No
2024/05/19,19:20,0.145,0.127,0.208,0.196,0.204,0.115,0.074,south,5.3,No
2024/05/19,19:30,0.145,0.128,0.208,0.194,0.205,0.115,0.075,south,5.3,Yes
2024/05/19,19:40,0.145,0.128,0.207,0.197,0.205,0.114,0.075,south,6.6,Yes
2024/05/19,19:50,0.145,0.127,0.208,0.196,0.203,0.115,0.075,south,6.9,Yes
2024/05/19,20:00,0.145,0.128,0.206,0.195,0.207,0.115,0.075,south,6.1,Yes
2024/05/19,20:10,0.146,0.127,0.209,0.197,0.206,0.114,0.075,south-southwest,6.1,Yes
2024/05/19,20:20,0.144,0.128,0.207,0.194,0.205,0.114,0.075,south-southwest,5.7,Yes
2024/05/19,20:30,0.145,0.127,0.207,0.196,0.206,0.115,0.074,south,4.4,Yes
2024/05/19,20:40,0.145,0.129,0.207,0.194,0.204,0.115,0.076,south,4.9,No
2024/05/19,20:50,0.146,0.127,0.208,0.195,0.205,0.115,0.076,south,4.1,No
2024/05/19,21:00,0.146,0.128,0.209,0.195,0.204,0.115,0.075,south,4.6,No
2024/05/19,21:10,0.144,0.127,0.208,0.196,0.206,0.114,0.075,south,3.6,No
2024/05/19,21:20,0.145,0.127,0.207,0.195,0.206,0.114,0.075,south,3.0,No
2024/05/19,21:30,0.145,0.128,0.207,0.194,0.205,0.115,0.075,south,3.2,No
2024/05/19,21:40,0.145,0.128,0.208,0.196,0.206,0.114,0.075,south,5.0,Yes
2024/05/19,21:50,0.146,0.126,0.208,0.194,0.204,0.114,0.076,south,5.4,Yes
2024/05/19,22:00,0.145,0.128,0.208,0.197,0.206,0.115,0.075,south,5.8,Yes
2024/05/19,22:10,0.145,0.129,0.206,0.195,0.206,0.114,0.075,south-southwest,3.5,No
2024/05/19,22:20,0.145,0.128,0.208,0.195,0.205,0.116,0.075,south,5.3,No
2024/05/19,22:30,0.146,0.129,0.208,0.196,0.205,0.115,0.075,south,5.5,No
2024/05/19,22:40,0.145,0.128,0.208,0.195,0.204,0.115,0.076,south,4.8,No
2024/05/19,22:50,0.145,0.129,0.208,0.198,0.207,0.115,0.075,south,4.8,No
2024/05/19,23:00,0.146,0.128,0.208,0.195,0.205,0.115,0.076,south-southwest,4.4,No
2024/05/19,23:10,0.144,0.128,0.209,0.196,0.206,0.115,0.075,south-southwest,4.2,No
2024/05/19,23:20,0.147,0.128,0.208,0.196,0.206,0.115,0.076,southwest,2.7,Yes
2024/05/19,23:30,0.145,0.129,0.208,0.196,0.205,0.116,0.076,southwest,1.8,Yes
2024/05/19,23:40,0.146,0.128,0.208,0.197,0.207,0.115,0.076,southwest,2.5,Yes
2024/05/19,23:50,0.146,0.128,0.209,0.195,0.205,0.115,0.075,south-southwest,2.6,Yes
